Home   Weather   New Salem   Past weeks

Flag for USA Past Weather in New Salem, North Dakota, USA — Yesterday and Last 2 Weeks

Now
33 °F

Sunny.


Feels Like: 30 °F
Forecast: 25 / 38 °F
Wind: 3 mph from East

Location: Bismarck Municipal Airport

Current Time: Jan 18, 2017 at 2:27:43 pm

Latest Report: Jan 18, 2017 at 1:52 pm


Visibility: 10 mi

Pressure: 29.75 "Hg (27.38 "Hg at 664m altitude)

Humidity: 72%

Dew Point: 25 °F

Location of New SalemLocation

Past Weather in New Salem — Graph

°F

New Salem Temperature Yesterday

Maximum temperature yesterday: 33 °F (at 3:52 pm)
Minimum temperature yesterday: 0 °F (at 5:05 am)
Average temperature yesterday: 16 °F

High & Low Weather Summary for the Past Weeks

 TemperatureHumidityPressure
High33 °F (Jan 17, 3:52 pm)96% (Jan 7, 9:52 am)30.81 "Hg (Jan 7, 9:52 am)
Low-25 °F (Jan 13, 1:52 am)53% (Jan 12, 11:52 am)29.69 "Hg (Jan 10, 8:52 am)
Average-1 °F75%30.25 "Hg
* Reported Jan 3 12:52 pm — Jan 18 12:52 pm, New Salem, Weather by CustomWeather, © 2017

Note: Actual official high and low records may vary slightly from our data, if they occured in-between our weather recording intervals... More about our weather records

Advertising

New Salem Weather History for the Previous 24 Hours

Scroll right to see more
 ConditionsComfort  
Time TempWeatherWind HumidityBarometerVisibility
12:52 pm
Wed, Jan 18
30 °FSunny.5 mph72%29.77 "Hg10 mi
11:52 am27 °FSunny.3 mph75%29.79 "Hg10 mi
10:52 am23 °FSunny.No wind78%29.81 "Hg10 mi
9:52 am22 °FSunny.No wind75%29.83 "Hg10 mi
8:52 am16 °FSunny.5 mph80%29.83 "Hg10 mi
7:52 am18 °FClear.8 mph77%29.83 "Hg10 mi
6:52 am18 °FClear.5 mph77%29.83 "Hg10 mi
5:52 am18 °FClear.3 mph80%29.82 "Hg10 mi
4:52 am17 °FClear.No wind80%29.83 "Hg10 mi
3:52 am19 °FClear.3 mph81%29.83 "Hg10 mi
2:52 am20 °FClear.3 mph82%29.82 "Hg10 mi
1:52 am19 °FClear.5 mph81%29.82 "Hg10 mi
12:52 am24 °FClear.No wind75%29.84 "Hg10 mi
11:52 pm
Tue, Jan 17
26 °FClear.5 mph71%29.85 "Hg10 mi
10:52 pm28 °FClear.8 mph72%29.84 "Hg10 mi
9:52 pm30 °FClear.6 mph64%29.85 "Hg10 mi
8:52 pm31 °FClear.7 mph61%29.85 "Hg10 mi
7:52 pm31 °FClear.9 mph59%29.85 "Hg10 mi
6:52 pm27 °FClear.5 mph66%29.87 "Hg10 mi
5:52 pm28 °FClear.6 mph64%29.88 "Hg10 mi
4:52 pm31 °FSunny.3 mph59%29.88 "Hg10 mi
3:52 pm33 °FSunny.3 mph54%29.88 "Hg10 mi
2:52 pm25 °FSunny.No wind69%29.90 "Hg10 mi
Weather by CustomWeather, © 2017

See weather overviewHow to use our weather pages